Agua Blanca, Mexico

3:03 AM CST on February 26, 2017 (GMT -0600)
De Guanajuato International

Weather History for MMLO - January, 2014

Change the Weather History Date:

Monday, January 27, 2014

  Actual Average Record
Temperature  
Mean Temperature 63 °F -  
Max Temperature 80 °F 74 °F 84 °F (2009)
Min Temperature 46 °F 44 °F 39 °F (1997)
Degree Days  
Heating Degree Days 2    
Growing Degree Days 13 (Base 50)    
Moisture  
Dew Point 36 °F    
Average Humidity 41    
Maximum Humidity 71    
Minimum Humidity 18    
Precipitation  
Precipitation 0.00 in - - ()
Sea Level Pressure  
Sea Level Pressure 30.06 in    
Wind  
Wind Speed 2 mph ()    
Max Wind Speed 10 mph    
Max Gust Speed -    
Visibility 8.9 miles    
Events      
Averages and records for this station are not official NWS values.
T = Trace of Precipitation, MM = Missing Value Source: Averaged Metar Reports

Daily Weather History Graph

Daily Weather History Graph

Search for Another Location

Airport or City:

Trip Planner

Search our weather history database for the weather conditions in past years. The results will help you decide how hot, cold, wet, or windy it might be!

Date:

Astronomy

Jan. 27, 2014 Rise Set
Actual Time 7:24 AM CST 6:33 PM CST
Civil Twilight 7:00 AM CST 6:56 PM CST
Nautical Twilight 6:34 AM CST 7:23 PM CST
Astronomical Twilight 6:07 AM CST 7:50 PM CST
Moon 4:02 AM CST (1/27) 3:26 PM CST (1/27)
Length of Visible Light 11h 55m
Length of Day
11h 09m
Waning Crescent, 14% of the Moon is Illuminated
Jan 27
Waning Crescent
Jan 30
New
Feb 6
First Quarter
Feb 14
Full
Feb 22
Last Quarter

Hourly Weather History & Observations

Time (CST) Temp. Windchill Dew Point Humidity Pressure Visibility Wind Dir Wind Speed Gust Speed Precip Events Conditions
12:45 AM 51.8 °F - 35.6 °F 54% 30.20 in 8.0 mi Calm Calm - N/A   Clear
1:49 AM 51.8 °F - 35.6 °F 54% 30.18 in 8.0 mi Calm Calm - N/A   Clear
2:50 AM 48.2 °F - 35.6 °F 62% 29.84 in 8.0 mi Calm Calm - N/A   Clear
4:47 AM 46.4 °F - 35.6 °F 66% 30.18 in 8.0 mi Calm Calm - N/A   Clear
5:50 AM 46.4 °F 42.9 °F 35.6 °F 66% 29.86 in 8.0 mi NE 6.9 mph - N/A   Clear
6:50 AM 46.4 °F - 35.6 °F 66% 30.19 in 8.0 mi Calm Calm - N/A   Clear
7:49 AM 46.4 °F - 37.4 °F 71% 30.21 in 8.0 mi Calm Calm - N/A   Clear
8:40 AM 53.6 °F - 37.4 °F 54% 29.96 in 10.0 mi Calm Calm - N/A   Clear
9:46 AM 66.2 °F - 37.4 °F 35% 30.27 in 10.0 mi Calm Calm - N/A   Clear
10:53 AM 71.6 °F - 37.4 °F 29% 30.24 in 10.0 mi SSE 3.5 mph - N/A   Clear
11:50 AM 73.4 °F - 35.6 °F 25% 29.86 in 10.0 mi WSW 3.5 mph - N/A   Clear
12:46 PM 77.0 °F - 35.6 °F 22% 30.21 in 10.0 mi WNW 8.1 mph - N/A   Clear
1:40 PM 78.8 °F - 33.8 °F 20% 30.15 in 10.0 mi West 6.9 mph - N/A   Clear
2:49 PM 80.6 °F - 33.8 °F 18% 29.75 in 10.0 mi West 5.8 mph - N/A   Clear
3:45 PM 80.6 °F - 35.6 °F 20% 30.09 in 10.0 mi NW 9.2 mph - N/A   Partly Cloudy
4:41 PM 80.6 °F - 35.6 °F 20% 30.09 in 10.0 mi West 10.4 mph - N/A   Scattered Clouds
5:49 PM 77.0 °F - 33.8 °F 21% 29.77 in 10.0 mi WSW 10.4 mph - N/A   Scattered Clouds
6:51 PM 68.0 °F - 35.6 °F 30% 30.12 in 8.0 mi WSW 5.8 mph - N/A   Partly Cloudy
7:41 PM 64.4 °F - 33.8 °F 32% 30.12 in 8.0 mi West 4.6 mph - N/A   Clear
8:41 PM 62.6 °F - 37.4 °F 39% 29.86 in 8.0 mi Calm Calm - N/A   Clear
9:44 PM 60.8 °F - 35.6 °F 39% 30.15 in 8.0 mi Calm Calm - N/A   Clear
10:45 PM 57.2 °F - 35.6 °F 44% 30.18 in 8.0 mi Calm Calm - N/A   Clear
11:43 PM 55.4 °F - 35.6 °F 47% 29.87 in 8.0 mi Calm Calm - N/A   Clear